TimeCST,TemperatureF,Dew PointF,Humidity,Sea Level PressureIn,VisibilityMPH,Wind Direction,Wind SpeedMPH,Gust SpeedMPH,PrecipitationIn,Events,Conditions,WindDirDegrees,DateUTC
12:15 AM,44.2,43.7,98,30.12,2.5,North,6.9,-,N/A,,Overcast,360,2013-12-09 06:15:00
12:35 AM,44.4,43.7,97,30.11,2.0,NE,4.6,-,N/A,,Overcast,40,2013-12-09 06:35:00
12:55 AM,44.6,43.7,97,30.10,2.0,NE,4.6,-,N/A,,Overcast,40,2013-12-09 06:55:00
1:15 AM,44.6,43.9,97,30.08,2.5,NE,5.8,-,N/A,,Overcast,50,2013-12-09 07:15:00
1:35 AM,44.8,44.1,97,30.09,2.5,NNE,4.6,-,N/A,,Overcast,30,2013-12-09 07:35:00
1:55 AM,44.8,44.1,97,30.09,3.0,NE,6.9,-,N/A,,Overcast,40,2013-12-09 07:55:00
2:15 AM,45.0,44.2,97,30.09,3.0,Calm,Calm,-,N/A,,Overcast,0,2013-12-09 08:15:00
2:35 AM,45.1,44.6,98,30.08,2.5,NNE,3.5,-,N/A,,Overcast,20,2013-12-09 08:35:00
2:55 AM,45.1,44.6,98,30.08,2.5,North,6.9,-,N/A,,Overcast,10,2013-12-09 08:55:00
3:15 AM,45.1,44.6,98,30.08,2.5,NNE,4.6,-,N/A,,Overcast,20,2013-12-09 09:15:00
3:35 AM,45.5,44.8,97,30.08,3.0,NNE,3.5,-,N/A,,Overcast,20,2013-12-09 09:35:00
3:55 AM,45.5,44.8,97,30.09,3.0,Calm,Calm,-,N/A,,Overcast,0,2013-12-09 09:55:00
4:35 AM,45.5,45.0,98,30.10,2.5,Calm,Calm,-,N/A,,Overcast,0,2013-12-09 10:35:00
4:55 AM,45.7,45.0,97,30.10,2.0,North,3.5,-,N/A,,Overcast,10,2013-12-09 10:55:00
5:15 AM,45.7,45.1,98,30.10,2.0,Calm,Calm,-,N/A,,Overcast,0,2013-12-09 11:15:00
5:35 AM,45.9,45.5,99,30.09,2.5,NNE,4.6,-,N/A,,Light Drizzle,30,2013-12-09 11:35:00
5:55 AM,45.9,45.5,99,30.09,3.0,NNE,5.8,-,N/A,,Overcast,20,2013-12-09 11:55:00
6:15 AM,46.0,45.5,98,30.08,4.0,North,6.9,-,N/A,,Overcast,10,2013-12-09 12:15:00
6:35 AM,46.4,45.9,98,30.08,4.0,NNE,6.9,-,N/A,,Overcast,20,2013-12-09 12:35:00
6:55 AM,46.4,45.9,98,30.10,5.0,NNE,5.8,-,N/A,,Overcast,30,2013-12-09 12:55:00
7:15 AM,46.8,46.0,97,30.11,5.0,North,6.9,-,N/A,,Overcast,10,2013-12-09 13:15:00
7:35 AM,46.8,46.0,97,30.11,4.0,NNE,8.1,-,N/A,,Overcast,20,2013-12-09 13:35:00
7:55 AM,46.8,46.0,97,30.12,5.0,NNE,8.1,-,N/A,,Overcast,30,2013-12-09 13:55:00
8:15 AM,46.8,45.9,97,30.12,5.0,NE,10.4,-,N/A,,Overcast,40,2013-12-09 14:15:00
8:35 AM,46.9,45.9,96,30.12,5.0,NNE,6.9,-,N/A,,Overcast,30,2013-12-09 14:35:00
8:55 AM,47.1,46.0,96,30.13,4.0,NNE,5.8,-,N/A,,Overcast,30,2013-12-09 14:55:00
9:15 AM,46.9,46.0,97,30.13,4.0,NNE,11.5,-,N/A,,Overcast,30,2013-12-09 15:15:00
9:35 AM,46.9,46.0,97,30.13,7.0,North,8.1,-,N/A,,Overcast,10,2013-12-09 15:35:00
9:55 AM,46.9,45.9,96,30.13,7.0,NNE,8.1,-,N/A,,Overcast,30,2013-12-09 15:55:00
10:15 AM,46.9,45.9,96,30.13,4.0,NNE,9.2,-,N/A,,Light Drizzle,30,2013-12-09 16:15:00
10:35 AM,46.8,45.7,96,30.13,5.0,NNE,8.1,-,N/A,,Overcast,20,2013-12-09 16:35:00
10:55 AM,47.3,46.4,97,30.12,3.0,NNE,10.4,-,N/A,Rain,Rain,20,2013-12-09 16:55:00
11:15 AM,47.3,46.4,97,30.11,3.0,NNE,9.2,-,N/A,,Overcast,30,2013-12-09 17:15:00
11:35 AM,46.9,46.0,97,30.11,3.0,NNE,9.2,16.1,N/A,,Overcast,30,2013-12-09 17:35:00
11:55 AM,46.8,45.9,97,30.11,2.5,NNE,8.1,-,N/A,Rain,Heavy Rain,20,2013-12-09 17:55:00
12:15 PM,46.8,45.9,97,30.11,2.5,North,9.2,-,0.01,,Drizzle,10,2013-12-09 18:15:00
12:35 PM,46.9,46.0,97,30.10,2.5,North,11.5,-,0.02,,Drizzle,360,2013-12-09 18:35:00
12:55 PM,46.9,46.0,97,30.10,3.0,North,10.4,-,0.02,,Drizzle,350,2013-12-09 18:55:00
1:15 PM,46.6,45.7,97,30.09,2.0,North,10.4,-,0.01,,Drizzle,350,2013-12-09 19:15:00
1:35 PM,46.4,45.5,97,30.08,3.0,North,11.5,-,0.01,,Drizzle,360,2013-12-09 19:35:00
1:55 PM,46.4,45.5,97,30.07,4.0,North,12.7,-,0.01,,Overcast,360,2013-12-09 19:55:00
2:15 PM,46.0,45.1,97,30.07,4.0,North,12.7,-,N/A,,Overcast,360,2013-12-09 20:15:00
2:35 PM,45.5,44.4,96,30.08,7.0,North,10.4,-,N/A,,Overcast,350,2013-12-09 20:35:00
2:55 PM,45.1,44.1,96,30.08,10.0,North,10.4,-,N/A,,Overcast,360,2013-12-09 20:55:00
3:35 PM,44.6,43.7,97,30.08,7.0,North,13.8,-,N/A,,Overcast,350,2013-12-09 21:35:00
3:55 PM,44.6,43.7,97,30.10,10.0,North,11.5,-,N/A,,Overcast,350,2013-12-09 21:55:00
4:15 PM,43.9,43.0,97,30.10,5.0,NNW,13.8,19.6,N/A,,Overcast,340,2013-12-09 22:15:00
4:35 PM,43.7,42.8,97,30.11,5.0,North,11.5,-,N/A,,Overcast,350,2013-12-09 22:35:00
4:55 PM,43.2,42.3,97,30.12,10.0,North,13.8,19.6,N/A,,Overcast,350,2013-12-09 22:55:00
5:15 PM,43.0,42.1,97,30.12,7.0,North,11.5,18.4,N/A,,Overcast,350,2013-12-09 23:15:00
5:35 PM,42.8,41.9,97,30.13,7.0,North,15.0,18.4,N/A,,Overcast,360,2013-12-09 23:35:00
5:55 PM,42.8,41.9,97,30.14,7.0,North,11.5,-,N/A,,Overcast,360,2013-12-09 23:55:00
6:15 PM,42.8,41.9,97,30.15,7.0,North,11.5,17.3,N/A,,Overcast,350,2013-12-10 00:15:00
6:35 PM,42.3,41.4,97,30.16,5.0,North,13.8,18.4,N/A,,Overcast,360,2013-12-10 00:35:00
6:55 PM,42.1,41.2,97,30.17,4.0,North,16.1,20.7,N/A,,Overcast,360,2013-12-10 00:55:00
7:15 PM,42.1,41.2,97,30.18,10.0,North,12.7,-,N/A,,Overcast,350,2013-12-10 01:15:00
7:35 PM,42.1,41.2,97,30.19,10.0,North,13.8,-,N/A,,Overcast,350,2013-12-10 01:35:00
7:55 PM,41.9,41.0,97,30.19,7.0,North,17.3,-,N/A,,Overcast,360,2013-12-10 01:55:00
8:15 PM,41.9,41.0,97,30.21,10.0,North,15.0,21.9,N/A,,Overcast,350,2013-12-10 02:15:00
8:35 PM,42.1,41.0,96,30.22,10.0,North,12.7,19.6,N/A,,Overcast,350,2013-12-10 02:35:00
8:55 PM,41.4,40.5,97,30.23,4.0,NNW,17.3,21.9,N/A,,Overcast,340,2013-12-10 02:55:00
9:15 PM,40.6,39.7,97,30.24,5.0,North,20.7,-,N/A,,Overcast,350,2013-12-10 03:15:00
9:35 PM,40.1,39.4,97,30.25,10.0,NNW,19.6,24.2,N/A,,Overcast,340,2013-12-10 03:35:00
9:55 PM,39.7,38.7,96,30.27,10.0,North,17.3,25.3,N/A,,Overcast,350,2013-12-10 03:55:00
10:15 PM,39.6,38.3,95,30.28,10.0,North,16.1,24.2,N/A,,Overcast,350,2013-12-10 04:15:00
10:35 PM,39.4,38.3,96,30.29,7.0,NNW,16.1,24.2,N/A,,Overcast,340,2013-12-10 04:35:00
10:55 PM,38.5,37.6,97,30.30,4.0,NNW,16.1,19.6,N/A,,Overcast,340,2013-12-10 04:55:00
11:15 PM,38.3,37.4,97,30.30,10.0,North,20.7,27.6,N/A,,Overcast,350,2013-12-10 05:15:00
11:35 PM,37.9,36.5,95,30.31,10.0,North,17.3,26.5,N/A,,Overcast,350,2013-12-10 05:35:00
11:55 PM,37.6,36.1,95,30.32,7.0,North,20.7,26.5,N/A,,Overcast,350,2013-12-10 05:55:00